Location: Newark
(44.9861°N, 0.2536°E)
Time: 20:05:14
(UTC+00:00)

HuskySat-1 - Pass Details

Date: 18 July 2020
Orbit: 457 x 471 km, 51.6° (Epoch: 11 August)

Event Time Altitude Azimuth Distance (km) Brightness Sun altitude
Rises 20:51:56 0° 219° (SW) 2,494 ? -10.8°
Reaches altitude 10° 20:54:10 10° 212° (SSW) 1,619 ? -11.1°
Maximum altitude 20:57:36 40° 142° (SE) 694 ? -11.5°
Drops below altitude 10° 21:01:04 10° 71° (ENE) 1,620 ? -12.0°
Sets 21:03:17 0° 64° (ENE) 2,496 ? -12.2°
